New York JFK, NY

1:48 AM EST on December 12, 2017 (GMT -0500)
Kennedy International

Weather History for KJFK - November, 2012

Change the Weather History Date:

Tuesday, November 6, 2012

  Actual Average Record
Temperature  
Mean Temperature 38 °F 50 °F  
Max Temperature 45 °F 58 °F 75 °F (2015)
Min Temperature 31 °F 43 °F 30 °F (1962)
Degree Days  
Heating Degree Days 27 15  
Month to date heating degree days 119 83  
Since 1 July heating degree days 323 382  
Cooling Degree Days 0 0  
Month to date cooling degree days 0 0  
Year to date cooling degree days 1229 1005  
Moisture  
Dew Point 18 °F    
Average Humidity 45    
Maximum Humidity 59    
Minimum Humidity 31    
Precipitation  
Precipitation 0.00 in 0.11 in 1.42 in (1963)
Month to date precipitation T 0.64  
Year to date precipitation 33.35 36.72  
Snow  
Snow 0.00 in 0.00 in - ()
Month to date snowfall 0.0 0.0  
Since 1 July snowfall 0.0 0.0  
Snow Depth 0.00 in    
Sea Level Pressure  
Sea Level Pressure 30.19 in    
Wind  
Wind Speed 8 mph (NE)    
Max Wind Speed 14 mph    
Max Gust Speed 17 mph    
Visibility 10 miles    
Events      
T = Trace of Precipitation, MM = Missing Value Source: NWS Daily Summary

Daily Weather History Graph

Daily Weather History Graph

Search for Another Location

Airport or City:

Trip Planner

Search our weather history database for the weather conditions in past years. The results will help you decide how hot, cold, wet, or windy it might be!

Date:

Astronomy

Nov. 06, 2012 Rise Set
Actual Time 6:31 AM EST 4:45 PM EST
Civil Twilight 6:02 AM EST 5:14 PM EST
Nautical Twilight 5:30 AM EST 5:46 PM EST
Astronomical Twilight 4:58 AM EST 6:18 PM EST
Moon 11:22 PM EST (11/6) 12:22 PM EST (11/6)
Length of Visible Light 11h 11m
Length of Day
10h 13m
Waning Gibbous, 53% of the Moon is Illuminated
Nov 6
Waning Gibbous
Nov 6
Last Quarter
Nov 13
New
Nov 20
First Quarter
Nov 28
Full

Hourly Weather History & Observations

Time (EST) Temp. Windchill Dew Point Humidity Pressure Visibility Wind Dir Wind Speed Gust Speed Precip Events Conditions
12:51 AM 35.1 °F 27.9 °F 18.0 °F 50% 30.20 in 10.0 mi North 9.2 mph - N/A   Clear
1:51 AM 34.0 °F 26.6 °F 19.0 °F 54% 30.20 in 10.0 mi NNE 9.2 mph - N/A   Clear
2:51 AM 33.1 °F 27.7 °F 19.0 °F 56% 30.19 in 10.0 mi NNE 5.8 mph - N/A   Clear
3:51 AM 32.0 °F 25.6 °F 19.0 °F 59% 30.19 in 10.0 mi NNE 6.9 mph - N/A   Clear
4:51 AM 32.0 °F 28.7 °F 18.0 °F 56% 30.21 in 10.0 mi North 3.5 mph - N/A   Clear
5:51 AM 32.0 °F 26.4 °F 18.0 °F 56% 30.22 in 10.0 mi NNE 5.8 mph - N/A   Scattered Clouds
6:51 AM 32.0 °F 26.4 °F 18.0 °F 56% 30.23 in 10.0 mi North 5.8 mph - N/A   Scattered Clouds
7:51 AM 36.0 °F 28.5 °F 18.0 °F 48% 30.25 in 10.0 mi NNE 10.4 mph - N/A   Scattered Clouds
8:51 AM 39.9 °F 33.4 °F 18.0 °F 41% 30.25 in 10.0 mi NE 10.4 mph - N/A   Mostly Cloudy
9:51 AM 41.0 °F 35.8 °F 17.1 °F 38% 30.25 in 10.0 mi NNE 8.1 mph - N/A   Mostly Cloudy
10:51 AM 42.1 °F 37.7 °F 16.0 °F 35% 30.25 in 10.0 mi NE 6.9 mph - N/A   Mostly Cloudy
11:51 AM 42.1 °F 40.2 °F 17.1 °F 37% 30.23 in 10.0 mi NNW 3.5 mph - N/A   Mostly Cloudy
12:51 PM 44.1 °F 40.8 °F 17.1 °F 34% 30.20 in 10.0 mi Variable 5.8 mph - N/A   Mostly Cloudy
1:51 PM 45.0 °F 40.6 °F 16.0 °F 31% 30.18 in 10.0 mi NNE 8.1 mph - N/A   Scattered Clouds
2:51 PM 45.0 °F 40.1 °F 17.1 °F 33% 30.17 in 10.0 mi NNE 9.2 mph - N/A   Scattered Clouds
3:51 PM 43.0 °F 37.7 °F 17.1 °F 35% 30.16 in 10.0 mi NE 9.2 mph - N/A   Scattered Clouds
4:51 PM 39.9 °F 34.5 °F 16.0 °F 38% 30.15 in 10.0 mi NE 8.1 mph - N/A   Scattered Clouds
5:51 PM 37.0 °F 33.3 °F 18.0 °F 46% 30.17 in 10.0 mi ENE 4.6 mph - N/A   Partly Cloudy
6:51 PM 37.0 °F 31.6 °F 19.0 °F 48% 30.15 in 10.0 mi NE 6.9 mph - N/A   Scattered Clouds
7:51 PM 36.0 °F 30.3 °F 19.0 °F 50% 30.16 in 10.0 mi ENE 6.9 mph - N/A   Mostly Cloudy
8:51 PM 36.0 °F 29.6 °F 19.9 °F 52% 30.13 in 10.0 mi ENE 8.1 mph - N/A   Mostly Cloudy
9:51 PM 36.0 °F 29.6 °F 21.9 °F 57% 30.12 in 10.0 mi ENE 8.1 mph - N/A   Mostly Cloudy
10:51 PM 37.9 °F 31.5 °F 23.0 °F 55% 30.10 in 10.0 mi ENE 9.2 mph - N/A   Overcast
11:51 PM 39.9 °F 32.5 °F 24.1 °F 53% 30.07 in 10.0 mi NNE 12.7 mph - N/A   Overcast